When you browse on this site, cookies collect data to enhance your experience and personalize the content and advertising you see.
Visit our Privacy Policy to learn more. By continuing to use the site, you agree to this use of cookies and data.
  • In France
  • List of Countries
  • For 7 days
  • Water Temperature
  • Satellite Maps
  • Weather Map
  • Weather Widgets
  • user-avatar
    Login

    Hourly Weather Punta Gorda

    Today, 24 April, Wednesday

    Time Temperature Precipitation Wind Pressure Humidity
    00:00 +26°C° 0 mm 3 mps 759 mmHg 91%
    01:00 +25°C° 0.3 mm 2 mps 759 mmHg 92%
    02:00 +25°C° 0.3 mm 2 mps 759 mmHg 93%
    03:00 +25°C° 0.3 mm 2 mps 758 mmHg 95%
    04:00 +25°C° 0.1 mm 2 mps 759 mmHg 95%
    05:00 +25°C° 0.1 mm 1 mps 759 mmHg 95%
    06:00 +25°C° 0.1 mm 1 mps 759 mmHg 95%
    07:00 +27°C° 0.1 mm 1 mps 759 mmHg 85%
    08:00 +29°C° 0.1 mm 1 mps 759 mmHg 76%
    09:00 +31°C° 0.1 mm 1 mps 759 mmHg 67%
    10:00 +32°C° 0 mm 2 mps 759 mmHg 61%
    11:00 +35°C° 0 mm 3 mps 758 mmHg 54%
    12:00 +36°C° 0 mm 3 mps 758 mmHg 48%
    13:00 +36°C° 0 mm 4 mps 757 mmHg 48%
    14:00 +36°C° 0 mm 4 mps 757 mmHg 48%
    15:00 +36°C° 0 mm 5 mps 756 mmHg 48%
    16:00 +34°C° 0 mm 5 mps 756 mmHg 54%
    17:00 +32°C° 0 mm 5 mps 756 mmHg 60%
    18:00 +30°C° 0 mm 5 mps 756 mmHg 66%
    19:00 +29°C° 0 mm 4 mps 756 mmHg 72%
    20:00 +28°C° 0 mm 4 mps 757 mmHg 78%
    21:00 +27°C° 0 mm 4 mps 757 mmHg 84%
    22:00 +27°C° 0 mm 3 mps 757 mmHg 86%
    23:00 +27°C° 0 mm 3 mps 758 mmHg 87%

    Tomorrow, 25 April, Thursday

    Time Temperature Precipitation Wind Pressure Humidity
    00:00 +27°C° 0 mm 2 mps 758 mmHg 89%
    01:00 +27°C° 0 mm 2 mps 757 mmHg 90%
    02:00 +26°C° 0 mm 1 mps 757 mmHg 91%
    03:00 +26°C° 0 mm 1 mps 756 mmHg 92%
    04:00 +26°C° 0 mm 1 mps 756 mmHg 93%
    05:00 +26°C° 0 mm 1 mps 756 mmHg 93%
    06:00 +26°C° 0 mm 1 mps 756 mmHg 94%
    07:00 +29°C° 0 mm 1 mps 757 mmHg 81%
    08:00 +32°C° 0 mm 1 mps 757 mmHg 68%
    09:00 +33°C° 0 mm 0 mps 757 mmHg 55%
    10:00 +36°C° 0 mm 1 mps 757 mmHg 50%
    11:00 +38°C° 0 mm 2 mps 756 mmHg 45%
    12:00 +39°C° 0 mm 2 mps 756 mmHg 40%
    13:00 +39°C° 0 mm 3 mps 755 mmHg 41%
    14:00 +40°C° 0 mm 4 mps 755 mmHg 41%
    15:00 +40°C° 0 mm 4 mps 754 mmHg 41%
    16:00 +37°C° 0 mm 4 mps 754 mmHg 48%
    17:00 +35°C° 0 mm 4 mps 754 mmHg 56%
    18:00 +33°C° 0 mm 4 mps 755 mmHg 63%
    19:00 +32°C° 0 mm 4 mps 756 mmHg 68%
    20:00 +30°C° 0 mm 4 mps 757 mmHg 74%
    21:00 +29°C° 0 mm 4 mps 758 mmHg 79%
    22:00 +28°C° 0 mm 3 mps 758 mmHg 82%
    23:00 +28°C° 0 mm 3 mps 758 mmHg 85%

    Day after tomorrow, 26 April, Friday

    Time Temperature Precipitation Wind Pressure Humidity
    00:00 +27°C° 0 mm 2 mps 758 mmHg 88%
    01:00 +27°C° 0 mm 2 mps 758 mmHg 87%
    02:00 +27°C° 0 mm 2 mps 757 mmHg 86%
    03:00 +27°C° 0 mm 2 mps 757 mmHg 85%
    04:00 +27°C° 0 mm 2 mps 758 mmHg 84%
    05:00 +27°C° 0 mm 2 mps 758 mmHg 83%
    06:00 +27°C° 0 mm 2 mps 758 mmHg 82%
    07:00 +30°C° 0 mm 1 mps 759 mmHg 70%
    08:00 +33°C° 0 mm 1 mps 759 mmHg 58%
    09:00 +36°C° 0 mm 1 mps 759 mmHg 46%
    10:00 +37°C° 0 mm 1 mps 759 mmHg 42%
    11:00 +40°C° 0 mm 1 mps 759 mmHg 37%
    12:00 +41°C° 0 mm 2 mps 758 mmHg 33%
    13:00 +39°C° 0 mm 2 mps 757 mmHg 41%
    14:00 +37°C° 0 mm 3 mps 757 mmHg 50%
    15:00 +34°C° 0 mm 3 mps 756 mmHg 58%
    16:00 +34°C° 0.1 mm 3 mps 756 mmHg 63%
    17:00 +33°C° 0.1 mm 3 mps 757 mmHg 67%
    18:00 +31°C° 0.1 mm 3 mps 757 mmHg 71%
    19:00 +30°C° 1 mm 3 mps 758 mmHg 76%
    20:00 +29°C° 1 mm 3 mps 759 mmHg 80%
    21:00 +28°C° 1 mm 2 mps 759 mmHg 84%
    22:00 +28°C° 0.9 mm 2 mps 759 mmHg 86%
    23:00 +27°C° 0.9 mm 2 mps 759 mmHg 89%

    27 April, Saturday

    Time Temperature Precipitation Wind Pressure Humidity
    00:00 +27°C° 0.9 mm 1 mps 760 mmHg 91%
    01:00 +27°C° 0.7 mm 1 mps 759 mmHg 92%
    02:00 +26°C° 0.7 mm 1 mps 759 mmHg 93%
    03:00 +26°C° 0.7 mm 1 mps 758 mmHg 95%
    04:00 +26°C° 0.5 mm 1 mps 759 mmHg 95%
    05:00 +26°C° 0.5 mm 1 mps 759 mmHg 95%
    06:00 +26°C° 0.5 mm 1 mps 759 mmHg 95%
    07:00 +27°C° 0.8 mm 1 mps 760 mmHg 90%
    08:00 +29°C° 0.8 mm 1 mps 760 mmHg 85%
    09:00 +31°C° 0.8 mm 1 mps 760 mmHg 80%
    10:00 +32°C° 0.4 mm 1 mps 760 mmHg 70%
    11:00 +34°C° 0.4 mm 1 mps 759 mmHg 61%
    12:00 +36°C° 0.4 mm 1 mps 758 mmHg 52%
    13:00 +36°C° 0.3 mm 1 mps 758 mmHg 51%
    14:00 +37°C° 0.3 mm 2 mps 757 mmHg 50%
    15:00 +37°C° 0.3 mm 2 mps 756 mmHg 50%
    16:00 +36°C° 0.1 mm 3 mps 756 mmHg 55%
    17:00 +34°C° 0.1 mm 3 mps 757 mmHg 61%
    18:00 +31°C° 0.1 mm 3 mps 757 mmHg 66%
    19:00 +30°C° 0 mm 3 mps 758 mmHg 72%
    20:00 +29°C° 0 mm 3 mps 758 mmHg 78%
    21:00 +28°C° 0 mm 3 mps 759 mmHg 83%
    22:00 +28°C° 0 mm 3 mps 759 mmHg 86%
    23:00 +27°C° 0 mm 2 mps 759 mmHg 88%

    28 April, Sunday

    Time Temperature Precipitation Wind Pressure Humidity
    00:00 +27°C° 0 mm 2 mps 759 mmHg 91%
    01:00 +27°C° 0 mm 2 mps 759 mmHg 92%
    02:00 +26°C° 0 mm 1 mps 758 mmHg 93%
    03:00 +26°C° 0 mm 1 mps 758 mmHg 95%
    04:00 +26°C° 0 mm 1 mps 758 mmHg 95%
    05:00 +26°C° 0 mm 1 mps 758 mmHg 95%
    06:00 +26°C° 0 mm 1 mps 759 mmHg 95%
    07:00 +28°C° 0 mm 1 mps 759 mmHg 83%
    08:00 +30°C° 0 mm 1 mps 760 mmHg 71%
    09:00 +33°C° 0 mm 1 mps 760 mmHg 59%
    10:00 +35°C° 0 mm 2 mps 759 mmHg 54%
    11:00 +36°C° 0 mm 3 mps 759 mmHg 50%
    12:00 +37°C° 0 mm 3 mps 758 mmHg 45%
    13:00 +37°C° 0 mm 4 mps 758 mmHg 46%
    14:00 +36°C° 0 mm 4 mps 757 mmHg 47%
    15:00 +36°C° 0 mm 4 mps 756 mmHg 48%
    16:00 +35°C° 0 mm 5 mps 756 mmHg 55%
    17:00 +33°C° 0 mm 5 mps 757 mmHg 62%
    18:00 +30°C° 0 mm 5 mps 757 mmHg 69%
    19:00 +29°C° 0 mm 4 mps 758 mmHg 75%
    20:00 +29°C° 0 mm 4 mps 759 mmHg 81%
    21:00 +28°C° 0 mm 4 mps 760 mmHg 87%
    22:00 +27°C° 0.2 mm 4 mps 759 mmHg 89%
    23:00 +27°C° 0.2 mm 3 mps 759 mmHg 91%

    29 April, Monday

    Time Temperature Precipitation Wind Pressure Humidity
    00:00 +27°C° 0.2 mm 3 mps 759 mmHg 94%
    01:00 +27°C° 0.3 mm 2 mps 759 mmHg 95%
    02:00 +26°C° 0.3 mm 2 mps 759 mmHg 95%
    03:00 +26°C° 0.3 mm 2 mps 758 mmHg 96%
    04:00 +26°C° 0.6 mm 2 mps 759 mmHg 96%
    05:00 +26°C° 0.6 mm 2 mps 759 mmHg 96%
    06:00 +26°C° 0.6 mm 2 mps 759 mmHg 96%
    07:00 +28°C° 0.2 mm 2 mps 760 mmHg 86%
    08:00 +29°C° 0.2 mm 2 mps 760 mmHg 77%
    09:00 +31°C° 0.2 mm 3 mps 760 mmHg 68%
    10:00 +33°C° 0.1 mm 3 mps 760 mmHg 62%
    11:00 +35°C° 0.1 mm 4 mps 759 mmHg 56%
    12:00 +36°C° 0.1 mm 4 mps 759 mmHg 50%
    13:00 +36°C° 0 mm 5 mps 758 mmHg 51%
    14:00 +35°C° 0 mm 5 mps 758 mmHg 52%
    15:00 +35°C° 0 mm 5 mps 757 mmHg 52%
    16:00 +34°C° 0.1 mm 5 mps 758 mmHg 58%
    17:00 +32°C° 0.1 mm 5 mps 758 mmHg 63%
    18:00 +30°C° 0.1 mm 5 mps 759 mmHg 69%
    19:00 +29°C° 0.2 mm 5 mps 759 mmHg 74%
    20:00 +28°C° 0.2 mm 4 mps 760 mmHg 80%
    21:00 +27°C° 0.2 mm 4 mps 760 mmHg 85%
    22:00 +27°C° 0.4 mm 4 mps 760 mmHg 86%
    23:00 +27°C° 0.4 mm 4 mps 760 mmHg 87%
    Show more